Time+07,TemperatureF,Dew PointF,Humidity,Sea Level PressureIn,VisibilityMPH,Wind Direction,Wind SpeedMPH,Gust SpeedMPH,PrecipitationIn,Events,Conditions,WindDirDegrees,DateUTC
12:00 AM,80.6,75.2,84,29.86,6.2,NNE,3.5,-,N/A,,Scattered Clouds,30,2012-11-14 17:00:00
12:30 AM,78.8,75.2,89,29.86,6.2,Calm,Calm,-,N/A,,Scattered Clouds,0,2012-11-14 17:30:00
1:00 AM,80,77,88,29.80,6,Calm,Calm,,,,Scattered Clouds,,2012-11-14 18:00:00
1:00 AM,78.8,75.2,89,29.83,6.2,Calm,Calm,-,N/A,,Scattered Clouds,0,2012-11-14 18:00:00
1:30 AM,77.0,75.2,94,29.83,6.2,Calm,Calm,-,N/A,,Scattered Clouds,0,2012-11-14 18:30:00
2:00 AM,77.0,75.2,94,29.83,6.2,Calm,Calm,-,N/A,,Scattered Clouds,0,2012-11-14 19:00:00
2:30 AM,77.0,75.2,94,29.80,5.6,Calm,Calm,-,N/A,,Scattered Clouds,0,2012-11-14 19:30:00
3:00 AM,77.0,75.2,94,29.80,5.6,Calm,Calm,-,N/A,,Scattered Clouds,0,2012-11-14 20:00:00
3:30 AM,77.0,75.2,94,29.80,5.6,Calm,Calm,-,N/A,,Scattered Clouds,0,2012-11-14 20:30:00
4:00 AM,77.0,75.2,94,29.80,5.6,Calm,Calm,-,N/A,,Scattered Clouds,0,2012-11-14 21:00:00
4:30 AM,77.0,75.2,94,29.80,5.6,Calm,Calm,-,N/A,,Scattered Clouds,0,2012-11-14 21:30:00
6:00 AM,77.0,75.2,94,29.80,5.6,Calm,Calm,-,N/A,,Scattered Clouds,0,2012-11-14 23:00:00
6:30 AM,77.0,75.2,94,29.83,5.6,Calm,Calm,-,N/A,,Mostly Cloudy,0,2012-11-14 23:30:00
7:00 AM,78,76,94,29.81,6,Calm,Calm,,,,Mist,,2012-11-15 00:00:00
7:00 AM,77.0,75.2,94,29.83,5.6,Calm,Calm,-,N/A,,Mostly Cloudy,0,2012-11-15 00:00:00
7:30 AM,82.4,75.2,79,29.83,5.6,Calm,Calm,-,N/A,,Mostly Cloudy,0,2012-11-15 00:30:00
8:00 AM,82.4,75.2,79,29.86,5.6,NE,5.8,-,N/A,,Mostly Cloudy,40,2012-11-15 01:00:00
8:30 AM,86.0,75.2,70,29.86,6.2,East,5.8,-,N/A,,Mostly Cloudy,90,2012-11-15 01:30:00
9:00 AM,87.8,73.4,62,29.89,6.2,Calm,Calm,-,N/A,,Mostly Cloudy,0,2012-11-15 02:00:00
9:30 AM,87.8,75.2,66,29.89,6.2,West,8.1,-,N/A,,Mostly Cloudy,260,2012-11-15 02:30:00
10:30 AM,87.8,75.2,66,29.89,6.2,WNW,5.8,-,N/A,,Mostly Cloudy,290,2012-11-15 03:30:00
11:00 AM,87.8,75.2,66,29.89,6.2,West,5.8,-,N/A,,Mostly Cloudy,270,2012-11-15 04:00:00
11:30 AM,87.8,75.2,66,29.89,6.2,West,11.5,-,N/A,,Mostly Cloudy,270,2012-11-15 04:30:00
12:00 PM,87.8,75.2,66,29.86,6.2,West,11.5,-,N/A,,Mostly Cloudy,280,2012-11-15 05:00:00
12:30 PM,87.8,73.4,62,29.86,6.2,WNW,9.2,-,N/A,,Scattered Clouds,290,2012-11-15 05:30:00
1:00 PM,89,76,57,29.79,6,West,6.9,,,,Scattered Clouds,270,2012-11-15 06:00:00
1:00 PM,87.8,75.2,66,29.83,6.2,WNW,8.1,-,N/A,,Scattered Clouds,300,2012-11-15 06:00:00
1:30 PM,89.6,77.0,66,29.80,6.2,WSW,9.2,-,N/A,,Scattered Clouds,250,2012-11-15 06:30:00
2:00 PM,89.6,75.2,62,29.80,6.2,WNW,8.1,-,N/A,,Scattered Clouds,300,2012-11-15 07:00:00
2:30 PM,89.6,77.0,66,29.80,6.2,WNW,8.1,-,N/A,,Scattered Clouds,290,2012-11-15 07:30:00
3:00 PM,87.8,77.0,70,29.77,6.2,WNW,8.1,-,N/A,,Scattered Clouds,300,2012-11-15 08:00:00
3:30 PM,87.8,77.0,70,29.77,6.2,WNW,10.4,-,N/A,,Scattered Clouds,290,2012-11-15 08:30:00
4:00 PM,87.8,75.2,66,29.77,6.2,WSW,9.2,-,N/A,,Scattered Clouds,240,2012-11-15 09:00:00
4:30 PM,87.8,77.0,70,29.77,6.2,WNW,5.8,-,N/A,,Scattered Clouds,300,2012-11-15 09:30:00
5:00 PM,87.8,75.2,66,29.77,6.2,West,10.4,-,N/A,,Mostly Cloudy,270,2012-11-15 10:00:00
5:30 PM,86.0,75.2,70,29.77,6.2,WNW,6.9,-,N/A,,Mostly Cloudy,290,2012-11-15 10:30:00
6:00 PM,84.2,77.0,79,29.77,6.2,West,5.8,-,N/A,,Mostly Cloudy,270,2012-11-15 11:00:00
6:30 PM,84.2,77.0,79,29.80,6.2,NNW,3.5,-,N/A,,Mostly Cloudy,330,2012-11-15 11:30:00
7:00 PM,84,77,75,29.75,6,Calm,Calm,,,,Scattered Clouds,,2012-11-15 12:00:00
7:00 PM,82.4,77.0,84,29.80,6.2,Calm,Calm,-,N/A,,Mostly Cloudy,0,2012-11-15 12:00:00
7:30 PM,82.4,77.0,84,29.83,6.2,West,3.5,-,N/A,,Mostly Cloudy,270,2012-11-15 12:30:00
8:00 PM,80.6,77.0,89,29.83,6.2,Calm,Calm,-,N/A,,Mostly Cloudy,0,2012-11-15 13:00:00
8:30 PM,82.4,77.0,84,29.86,6.2,Calm,Calm,-,N/A,,Mostly Cloudy,0,2012-11-15 13:30:00
9:00 PM,84.2,75.2,74,29.89,6.2,WNW,4.6,-,N/A,,Mostly Cloudy,300,2012-11-15 14:00:00
9:30 PM,82.4,75.2,79,29.89,6.2,West,4.6,-,N/A,,Mostly Cloudy,270,2012-11-15 14:30:00
10:00 PM,84.2,75.2,74,29.89,6.2,WNW,5.8,-,N/A,,Mostly Cloudy,300,2012-11-15 15:00:00
10:30 PM,84.2,75.2,74,29.89,6.2,WNW,6.9,-,N/A,,Mostly Cloudy,290,2012-11-15 15:30:00
11:00 PM,84.2,77.0,79,29.89,6.2,WNW,5.8,-,N/A,,Mostly Cloudy,300,2012-11-15 16:00:00
11:30 PM,82.4,75.2,79,29.89,6.2,NW,6.9,-,N/A,,Mostly Cloudy,320,2012-11-15 16:30:00